Location: Unspecified
(0.0000°N, 0.0000°E)
Time: 09:26:35
(UTC+00:00)

NOAA 19 - Visible Passes

Search period start: 10 July 2020 00:00
Search period end: 20 July 2020 00:00
Orbit: 841 x 861 km, 99.2° (Epoch: 09 July)

Date Brightness Start Highest point End Pass type
(mag) Time Alt. Az. Time Alt. Az. Time Alt. Az.
10 Jul 6.8 05:19:39 10° NE 05:24:43 37° ESE 05:29:47 10° S visible
11 Jul 7.3 05:08:26 10° NE 05:13:02 27° ESE 05:17:40 10° SSE visible
12 Jul 7.7 04:57:26 10° ENE 05:01:22 20° ESE 05:05:19 10° SSE visible
13 Jul 7.9 04:46:50 10° ENE 04:49:42 14° ESE 04:52:35 10° SE visible
13 Jul 8.1 19:12:47 10° WSW 19:14:25 11° WSW 19:16:04 10° W visible
14 Jul 7.8 18:59:29 10° SW 19:02:45 16° WSW 19:06:02 10° WNW visible
15 Jul 7.6 18:46:56 10° SSW 18:51:05 22° WSW 18:55:14 10° NW visible
16 Jul 7.1 18:34:41 10° SSW 18:39:24 31° WSW 18:44:08 10° NW visible
17 Jul 5.9 05:37:52 10° NNE 05:43:19 59° ESE 05:48:46 10° S visible
17 Jul 6.6 18:22:36 10° S 18:27:43 42° WSW 18:32:50 10° NNW visible
18 Jul 6.5 05:26:25 10° NNE 05:31:38 43° ESE 05:36:52 10° S visible
19 Jul 7.1 05:15:06 10° NE 05:19:57 32° ESE 05:24:49 10° SSE visible
